Showing default

GOES 16, 41866

Orbit data source: Space-Track

GOES 16, 41866 is a payload satellite owned by NOAA (US) in GEO that was launched on Sat, 19 Nov 2016 UTC via an ATLAS V 541 launch vehicle from the Air Force Eastern Test Range (AFETR). Payload-class satellites include a variety of spacecraft equipped with specific instruments for various scientific and technological missions. These include communications satellites like Starlink; space stations such as the ISS; scientific satellites like the Hubble; Earth observation satellites from companies like Planet Labs, Umbra, and HawkEye 360; GPS; miniature CubeSats for education and research; and military/defense satellites.

Loading next visibility...
Identifier
41866, 2016-071A
Orbit
GEO
Country
Flag of USUS
Related business
Manufacturer
LMCSS
Mission
Operational Civil Weather
Bus & Motor
A2100, LEROS-1C
Mass
5,192 kg wet, 2,857 kg dry
Launch date (UTC)
2016-11-19 (9 years ago)
Launch vehicle
ATLAS V 541
Launch site
Air Force Eastern Test Range (AFETR)
Object type
Payload
Rocket body
Debris
Shape & HBR
Box + 1 Pan + 1 Rod, 20.0 m
Radar Cross Section
37.561 m², Large (>1 m²)

Expand to show TLE details & history
Last TLE update: 10 hours ago

TLE from 10 hours ago
0 GOES 16
1 41866U 16071A   25310.13758969 -.00000081  00000-0  00000-0 0  9999
2 41866   0.0680  79.2211 0003194 163.9505 107.3115  1.00271415 32867
Epoch: 2025-11-06T03:18Z
TLE epoch observation values (Epoch: 2025-11-06T03:18:07.749Z)
Latitude
-0.04222°
Longitude
-104.65088°
Altitude
35,790.253 km
Speed
3.074 km/s
True Right ascension
23h 21m 55s
True Declination
0° 02' 32"
Sunlit
Object was in daylight at epoch
Visualization orbit readout
Latitude
Unknown
Longitude
Unknown
Altitude
Unknown
Speed
Unknown
Apparent Right ascension
Unknown
Apparent Declination
Unknown
Sunlit
N/A
Visualization observer readout
Local Sidereal Time
09:20:27
Azimuth
Unknown
Elevation
Unknown
Doppler factor
Unknown
Orbital elements
Apogee altitude
35,801.237 km
Perigee altitude
35,774.301 km
Semi-major axis
42,165.906 km
Eccentricity
0.00032
Inclination
0.068°
RAAN
79.2211°
Arg. of periapsis
163.9505°
True anomaly
107.34644°
Mean anomaly
107.3115°
Eccentric anomaly
107.32897°
Mean motion
0.25067 °/min
Orbital period
1,436.16 mins
BSTAR
0
Loading maneuver chart data...
Computing Atmospheric mass density...
Loading historical data...
Loading historical data...
Loading historical data...
Loading historical data...
Loading historical data...
Loading historical data...
Loading historical data...
Other satellites on launch #71 in the year 2016 (2016-11-19 UTC)

Documentation

Showing up to 5 results
|